Home > Time Zones > World Clock > Weather > Fiji > Nadi > Past weeks

Flag for Fiji Weather past 2 weeks in Nadi, Fiji

Now
70 °F

Passing clouds.


Feels Like: 70 °F
Forecast: 75 / 83 °F
Wind: 2 mph from South

Location: Nandi

Current Time: Aug 6, 2015 at 12:59:08 AM

Latest Report: Aug 6, 2015 at 12:00 AM


Visibility: N/A

Pressure: 29.89 "Hg

Humidity: 88%

Dew point: 66 °F

Location of NadiLocation

Historic Weather in Nadi — Graph

°F

Nadi temperature yesterday

Maximum temperature yesterday: 81 °F (at 1:00 PM)
Minimum temperature yesterday: 68 °F (at 7:00 AM)
Average temperature yesterday: 75 °F

Past Weeks' High & Low Weather Summary

 TemperatureHumidityPressure
High84 °F (Jul 27, 1:00 PM)100% (Jul 26, 4:00 AM)30.15 "Hg (Jul 26, 4:00 AM)
Low61 °F (Jul 26, 4:00 AM)40% (Jul 26, 1:00 PM)29.80 "Hg (Aug 5, 3:00 PM)
Average72 °F75%29.98 "Hg
* Reported Midnight between Jul 21 and Jul 22 — Midnight between Aug 5 and Aug 6, Nadi, Weather by CustomWeather, © 2015

Note: Actual official high and low records may vary slightly from our data, if they occured in-between our weather recording intervals... More about our weather records

Advertising

Nadi weather history for previous 24 hours

 ConditionsComfort  
Time TempWeatherWind HumidityBarometerVisibility
12:00 AM
Thu, Aug 6
70 °FPassing clouds.2 mph88%29.89 "HgN/A
11:00 PM
Wed, Aug 5
73 °FPassing clouds.3 mph78%29.89 "HgN/A
10:00 PM73 °FPassing clouds.5 mph83%29.89 "HgN/A
9:00 PM73 °FPassing clouds.10 mph78%29.86 "HgN/A
8:00 PM75 °FPassing clouds.3 mph83%29.86 "HgN/A
7:00 PM77 °FPassing clouds.3 mph83%29.83 "HgN/A
6:00 PM79 °FPassing clouds.6 mph74%29.83 "HgN/A
5:00 PM81 °FScattered clouds.14 mph70%29.83 "HgN/A
4:00 PM81 °FScattered clouds.14 mph74%29.80 "HgN/A
3:00 PM81 °FPassing clouds.12 mph74%29.80 "HgN/A
2:00 PM79 °FPassing clouds.12 mph79%29.83 "HgN/A
1:00 PM81 °FPassing clouds.13 mph70%29.86 "HgN/A
12:00 PM79 °FPassing clouds.13 mph74%29.86 "HgN/A
11:00 AM79 °FPassing clouds.10 mph74%29.89 "HgN/A
10:00 AM77 °FPassing clouds.8 mph79%29.92 "HgN/A
9:00 AM75 °FPassing clouds.5 mph83%29.92 "HgN/A
8:00 AM72 °FPassing clouds.2 mph88%29.89 "HgN/A
7:00 AM68 °FScattered clouds.2 mph100%29.89 "HgN/A
6:00 AM70 °FPassing clouds.5 mph94%29.86 "HgN/A
5:00 AM70 °FPassing clouds.5 mph94%29.86 "HgN/A
4:00 AM70 °FPartly cloudy.2 mph94%29.86 "HgN/A
3:00 AM70 °FPartly cloudy.No wind94%29.86 "HgN/A
2:00 AM70 °FMostly cloudy.2 mph94%29.89 "HgN/A
1:00 AM70 °FMostly cloudy.5 mph94%29.89 "HgN/A
12:00 AM70 °FPartly cloudy.3 mph94%29.92 "HgN/A
Weather by CustomWeather, © 2015

See weather overviewHow to use our weather pages